Waarnemingen

Advertentie
Mijn weer
Jersey Airport, Groot Brittannië (3895): temperatuur & dauwpunt: 12.12.2017 20:00:00 - 18.12.2017 20:00:00 (GMT)Jersey Airport, Groot Brittannië (3895): temperatuur -20cm & temperatuur -100cm: 12.12.2017 20:00:00 - 18.12.2017 20:00:00 (GMT)Jersey Airport, Groot Brittannië (3895): windsnelheid & windstoten: 12.12.2017 20:00:00 - 18.12.2017 20:00:00 (GMT)Jersey Airport, Groot Brittannië (3895): windrichting: 12.12.2017 20:00:00 - 18.12.2017 20:00:00 (GMT)Jersey Airport, Groot Brittannië (3895): luchtdruk: 12.12.2017 20:00:00 - 18.12.2017 20:00:00 (GMT)Jersey Airport, Groot Brittannië (3895): zicht: 12.12.2017 20:00:00 - 18.12.2017 20:00:00 (GMT)Jersey Airport, Groot Brittannië (3895): Zonneschijnduur: 12.12.2017 20:00:00 - 18.12.2017 20:00:00 (GMT)Jersey Airport, Groot Brittannië (3895): neerslag: 12.12.2017 20:00:00 - 18.12.2017 20:00:00 (GMT)
Datum & Tijd tt [°C] td [°C] tt -20cm [°C] tt -100cm [°C] ff [km/u] ff [kn] fx [km/u] fx [kn] dd ppp [hPa] vv [km] sd [min] rr [mm]
18.12.2017 20:00:00 5,7 4,0 - - 11 6 - - ONO 1033,5 10 0 0,0
18.12.2017 19:00:00 6,7 4,0 - - 9 5 - - NO 1032,8 10 0 0,0
18.12.2017 18:00:00 6,2 4,0 - - 4 2 - - N 1032,1 10 0 0,0
18.12.2017 17:00:00 5,9 4,0 - - 4 2 - - N 1031,5 10 0 0,0
18.12.2017 16:00:00 7,9 5,0 - - 4 2 - - NW 1031,2 10 42 0,0
18.12.2017 15:00:00 8,7 4,0 - - 8 4 - - NNO 1030,7 10 60 0,0
18.12.2017 14:00:00 9,1 4,0 - - 9 5 - - NO 1030,4 10 60 0,0
18.12.2017 13:00:00 9,1 5,0 - - 13 7 - - NO 1030,1 10 60 0,0
18.12.2017 12:00:00 9,0 5,0 - - 13 7 - - NO 1029,8 10 60 0,0
18.12.2017 11:00:00 8,9 6,0 - - 15 8 - - ONO 1029,9 10 60 0,0
18.12.2017 10:00:00 8,5 6,0 - - 13 7 - - NO 1029,3 10 60 0,0
18.12.2017 09:00:00 7,8 6,0 7,7 9,4 11 6 - - NO 1027,9 10 12 0,0
18.12.2017 08:00:00 7,7 7,0 - - 13 7 - - NO 1027,3 10 0 0,0
18.12.2017 07:00:00 8,3 9,0 - - 21 11 - - NNO 1026,4 10 0 0,0
18.12.2017 06:00:00 10,2 10,0 - - 16 9 - - NNW 1025,3 10 0 0,0
18.12.2017 05:00:00 10,3 11,0 - - 15 8 - - NW 1024,8 10 0 0,2
18.12.2017 04:00:00 10,7 11,0 - - 22 12 - - NW 1024,5 2,6 0 0,8
18.12.2017 03:00:00 11,0 11,0 - - 24 13 - - WNW 1024,4 0,1 0 0,2
18.12.2017 02:00:00 11,0 11,0 - - 26 14 - - W 1024,1 2,6 0 0,0
18.12.2017 01:00:00 10,8 11,0 - - 26 14 - - W 1024,5 0,2 0 0,2
18.12.2017 00:00:00 10,9 11,0 - - 28 15 - - W 1025,1 10 - 0,0
17.12.2017 23:00:00 10,7 11,0 - - 29 16 46 25 W 1025,6 8 0 0,2
17.12.2017 22:00:00 10,4 7,0 - - 35 19 - - W 1025,3 3,7 0 0,2
17.12.2017 21:00:00 10,6 9,0 - - 37 20 46 25 W 1025,7 10 0 0,0
17.12.2017 20:00:00 10,5 9,0 - - 34 18 - - WZW 1025,4 10 0 0,0
17.12.2017 19:00:00 10,1 9,0 - - 37 20 48 26 WZW 1025,0 10 0 0,0
17.12.2017 18:00:00 10,1 9,0 - - 34 18 - - WZW 1025,2 10 0 0,0
17.12.2017 17:00:00 10,1 9,0 - - 28 15 - - WZW 1025,8 10 0 0,0
17.12.2017 16:00:00 9,8 7,0 - - 26 14 - - W 1026,1 10 0 0,0
17.12.2017 15:00:00 9,4 8,0 - - 16 9 - - W 1026,1 10 0 0,4
17.12.2017 14:00:00 9,4 5,0 - - 26 14 - - W 1026,7 10 0 0,4
17.12.2017 13:00:00 9,9 9,0 - - 16 9 - - W 1026,5 10 0 0,0
17.12.2017 12:00:00 9,0 8,0 - - 9 5 - - Z 1026,8 10 0 0,0
17.12.2017 11:00:00 9,2 8,0 - - 5 3 - - ZZW 1026,8 10 0 0,0
17.12.2017 10:00:00 8,3 7,0 - - 11 6 - - W 1027,3 10 0 0,4
17.12.2017 09:00:00 7,9 6,0 6,9 9,5 4 2 - - W 1027,0 10 0 0,0
17.12.2017 08:00:00 6,9 5,0 - - 5 3 - - WNW 1026,7 10 0 0,0
17.12.2017 07:00:00 7,3 5,0 - - 5 3 - - NNW 1026,3 10 0 0,0
17.12.2017 06:00:00 7,2 6,0 - - 8 4 - - NW 1026,3 10 0 0,0
17.12.2017 05:00:00 8,0 6,0 - - 8 4 - - NW 1025,9 10 0 0,0
17.12.2017 04:00:00 7,9 5,0 - - 9 5 - - NW 1025,9 10 0 0,0
17.12.2017 03:00:00 8,1 5,0 - - 9 5 - - NNW 1025,8 10 0 0,0
17.12.2017 02:00:00 8,0 4,0 - - 11 6 - - NNW 1025,4 10 0 0,0
17.12.2017 01:00:00 8,1 5,0 - - 18 10 - - NNW 1025,0 10 0 0,0
17.12.2017 00:00:00 8,3 6,0 - - 18 10 - - NNW 1024,9 10 - 0,0
16.12.2017 23:00:00 8,5 6,0 - - 18 10 - - NW 1024,7 10 0 0,0
16.12.2017 22:00:00 8,5 7,0 - - 22 12 - - NW 1024,3 10 0 0,0
16.12.2017 21:00:00 8,4 6,0 - - 24 13 - - NW 1023,7 10 0 0,2
16.12.2017 20:00:00 6,9 5,0 - - 26 14 48 26 WNW 1024,0 10 0 1,2
16.12.2017 19:00:00 8,0 3,0 - - 21 11 46 25 WNW 1023,8 10 0 0,0
16.12.2017 18:00:00 7,8 3,0 - - 24 13 55 30 WNW 1023,9 10 0 0,0
16.12.2017 17:00:00 7,6 2,0 - - 18 10 - - WNW 1023,6 10 0 0,0
16.12.2017 16:00:00 7,3 3,0 - - 16 9 - - NW 1023,3 10 0 0,0
16.12.2017 15:00:00 7,5 3,0 - - 13 7 - - NW 1022,8 10 48 0,0
16.12.2017 14:00:00 7,9 2,0 - - 15 8 - - NNW 1022,4 10 60 0,0
16.12.2017 13:00:00 7,6 1,0 - - 16 9 - - NNW 1022,2 10 54 0,0
16.12.2017 12:00:00 7,8 2,0 - - 21 11 - - NNW 1021,6 10 60 0,0
16.12.2017 11:00:00 7,7 0,0 - - 18 10 - - N 1021,5 10 36 0,0
16.12.2017 10:00:00 7,0 1,0 - - 18 10 - - N 1020,9 10 18 0,0
16.12.2017 09:00:00 6,5 3,0 6,7 9,5 15 8 - - NNW 1019,8 10 0 0,2
16.12.2017 08:00:00 6,8 3,0 - - 16 9 - - NNW 1018,7 10 0 0,0
16.12.2017 07:00:00 5,5 1,0 - - 15 8 - - NNW 1018,2 10 0 0,0
16.12.2017 06:00:00 5,5 1,0 - - 15 8 - - NNW 1017,5 10 0 0,0
16.12.2017 05:00:00 5,3 -5,0 - - 16 9 - - NNW 1016,7 10 0 0,0
16.12.2017 04:00:00 5,7 1,0 - - 18 10 - - NNW 1016,5 10 0 0,0
16.12.2017 03:00:00 6,0 2,0 - - 18 10 - - N 1015,8 10 0 0,0
16.12.2017 02:00:00 5,9 2,0 - - 13 7 - - NNW 1014,9 10 0 0,0
16.12.2017 01:00:00 6,6 2,0 - - 24 13 - - N 1014,1 10 0 0,0
16.12.2017 00:00:00 6,9 -5,0 - - 18 10 - - NNW 1013,5 10 - 0,0
15.12.2017 23:00:00 6,9 3,0 - - 18 10 - - NNW 1012,8 10 0 0,0
15.12.2017 22:00:00 6,7 2,0 - - 18 10 - - NNW 1012,0 10 0 0,0
15.12.2017 21:00:00 6,6 2,0 - - 28 15 52 28 N 1011,4 10 0 0,0
15.12.2017 20:00:00 6,8 2,0 - - 24 13 50 27 N 1010,2 10 0 0,0
15.12.2017 19:00:00 6,8 1,0 - - 21 11 46 25 N 1009,1 10 0 0,0
15.12.2017 18:00:00 6,9 2,0 - - 21 11 46 25 NNW 1007,8 10 0 0,0
15.12.2017 17:00:00 7,1 2,0 - - 21 11 50 27 NNW 1006,7 10 0 0,0
15.12.2017 16:00:00 6,8 2,0 - - 21 11 46 25 NNW 1005,7 10 0 0,0
15.12.2017 15:00:00 7,1 2,0 - - 18 10 46 25 NNW 1004,7 10 6 0,0
15.12.2017 14:00:00 7,5 1,0 - - 21 11 52 28 NNW 1003,8 10 42 0,0
15.12.2017 13:00:00 7,6 3,0 - - 26 14 57 31 NNW 1003,1 10 36 0,0
15.12.2017 12:00:00 7,9 2,0 - - 29 16 59 32 NNW 1002,3 10 42 0,0
15.12.2017 11:00:00 7,7 3,0 - - 31 17 68 37 NNW 1001,4 10 30 0,0
15.12.2017 10:00:00 7,5 4,0 - - 34 18 65 35 NW 999,8 10 24 0,0
15.12.2017 09:00:00 7,9 5,0 7,0 9,7 41 22 72 39 NW 997,8 10 0 0,0
15.12.2017 08:00:00 7,7 4,0 - - 37 20 76 41 NW 996,8 10 0 0,0
15.12.2017 07:00:00 6,9 5,0 - - 35 19 76 41 WNW 996,9 10 0 0,8
15.12.2017 06:00:00 8,8 5,0 - - 37 20 61 33 WNW 996,7 10 0 0,0
15.12.2017 05:00:00 8,4 5,0 - - 39 21 65 35 WNW 996,6 10 0 0,2
15.12.2017 04:00:00 8,2 4,0 - - 35 19 57 31 WNW 996,8 10 0 0,0
15.12.2017 03:00:00 6,7 4,0 - - 26 14 54 29 WNW 996,9 10 0 0,0
15.12.2017 02:00:00 6,8 5,0 - - 34 18 68 37 WNW 996,8 10 0 2,8
15.12.2017 01:00:00 7,5 4,0 - - 29 16 55 30 NW 996,4 10 0 0,0
15.12.2017 00:00:00 7,8 - - - 34 18 65 35 NW 996,0 10 - 0,0
14.12.2017 23:00:00 7,5 4,0 - - 39 21 78 42 NW 995,4 10 0 0,0
14.12.2017 22:00:00 7,9 5,0 - - 35 19 85 46 NW 994,0 10 0 0,0
14.12.2017 21:00:00 6,6 5,0 - - 41 22 78 42 WNW 993,1 10 0 0,6
14.12.2017 20:00:00 5,7 2,0 - - 48 26 85 46 W 993,0 10 0 0,4
14.12.2017 19:00:00 8,2 5,0 - - 37 20 63 34 W 993,6 10 0 0,0
14.12.2017 18:00:00 7,4 4,0 - - 41 22 68 37 W 994,1 10 0 0,0
14.12.2017 17:00:00 6,8 4,0 - - 41 22 67 36 W 994,3 10 0 1,6
14.12.2017 16:00:00 7,6 3,0 - - 44 24 70 38 W 993,9 10 0 0,2
14.12.2017 15:00:00 7,5 4,0 - - 37 20 63 34 W 994,4 10 0 0,0
14.12.2017 14:00:00 7,0 4,0 - - 35 19 78 42 W 995,2 10 0 0,4
14.12.2017 13:00:00 7,3 4,0 - - 34 18 55 30 WNW 996,5 10 0 0,2
14.12.2017 12:00:00 4,8 3,0 - - 48 26 76 41 W 997,6 7 0 3,4
14.12.2017 11:00:00 7,6 5,0 - - 31 17 70 38 W 998,6 10 0 0,8
14.12.2017 10:00:00 8,0 5,0 - - 44 24 65 35 W 999,3 10 12 0,0
14.12.2017 09:00:00 7,7 5,0 7,2 9,7 41 22 59 32 W 999,7 10 0 0,2
14.12.2017 08:00:00 6,7 - - - 46 25 74 40 W 1000,5 8 0 0,8
14.12.2017 07:00:00 6,9 5,0 - - 46 25 74 40 W 1000,7 7 0 1,0
14.12.2017 06:00:00 7,5 5,0 - - 46 25 67 36 W 1001,4 10 0 0,2
14.12.2017 05:00:00 8,0 5,0 - - 48 26 85 46 W 1001,4 10 0 0,2
14.12.2017 04:00:00 7,7 3,0 - - 46 25 81 44 W 1002,1 10 0 0,2
14.12.2017 03:00:00 6,7 4,0 - - 35 19 72 39 WNW 1002,9 5 0 0,4
14.12.2017 02:00:00 7,1 4,0 - - 37 20 80 43 W 1002,7 10 0 0,4
14.12.2017 01:00:00 7,4 3,0 - - 37 20 70 38 W 1002,5 8 0 0,2
14.12.2017 00:00:00 7,8 2,0 - - 48 26 76 41 WNW 1002,4 10 - 0,0
13.12.2017 23:00:00 7,9 3,0 - - 54 29 81 44 WNW 1001,8 10 0 0,0
13.12.2017 22:00:00 8,1 3,0 - - 61 33 96 52 WNW 1000,4 10 0 0,0
13.12.2017 21:00:00 6,8 6,0 - - 54 29 96 52 W 999,6 9 0 1,8
13.12.2017 20:00:00 8,7 6,0 - - 54 29 93 50 W 998,9 10 0 0,4
13.12.2017 19:00:00 9,5 6,0 - - 46 25 76 41 W 999,1 10 0 0,0
13.12.2017 18:00:00 8,7 7,0 - - 41 22 70 38 WNW 999,3 10 0 0,8
13.12.2017 17:00:00 9,6 8,0 - - 42 23 83 45 WNW 999,4 10 0 0,8
13.12.2017 16:00:00 10,7 10,0 - - 39 21 68 37 W 998,7 10 0 0,0
13.12.2017 15:00:00 10,6 10,0 - - 42 23 61 33 WZW 998,7 10 0 0,4
13.12.2017 14:00:00 9,9 9,0 - - 37 20 61 33 ZW 999,0 10 0 0,2
13.12.2017 13:00:00 10,2 9,0 - - 35 19 59 32 ZW 1000,6 10 0 0,0
13.12.2017 12:00:00 10,0 9,0 - - 41 22 57 31 ZW 1002,3 10 0 0,0
13.12.2017 11:00:00 10,0 9,0 - - 37 20 59 32 ZW 1003,9 10 0 0,0
13.12.2017 10:00:00 9,8 9,0 - - 41 22 57 31 WZW 1004,9 10 0 0,0
13.12.2017 09:00:00 9,4 9,0 7,0 9,7 31 17 54 29 WZW 1005,4 10 0 3,0
13.12.2017 08:00:00 9,9 8,0 - - 24 13 67 36 W 1006,1 10 0 0,6
13.12.2017 07:00:00 10,3 8,0 - - 31 17 48 26 W 1006,3 10 0 0,0
13.12.2017 06:00:00 9,8 8,0 - - 22 12 46 25 W 1006,2 10 0 0,0
13.12.2017 05:00:00 9,8 - - - 26 14 54 29 W 1006,3 10 0 0,0
13.12.2017 04:00:00 10,1 9,0 - - 26 14 48 26 W 1006,1 10 0 0,0
13.12.2017 03:00:00 9,7 9,0 - - 44 24 65 35 WZW 1006,6 3,5 0 0,2
13.12.2017 02:00:00 9,6 9,0 - - 39 21 59 32 ZZW 1006,4 10 0 0,2
13.12.2017 01:00:00 8,6 8,0 - - 29 16 54 29 ZZW 1007,6 5 0 0,6
13.12.2017 00:00:00 8,4 7,0 - - 29 16 46 25 Z 1008,7 10 - 0,0
12.12.2017 23:00:00 8,3 7,0 - - 31 17 55 30 ZZW 1009,2 10 0 0,0
12.12.2017 22:00:00 8,0 6,0 - - 31 17 46 25 ZZW 1010,8 10 0 0,4
12.12.2017 21:00:00 8,4 6,0 - - 28 15 46 25 ZZW 1011,1 10 0 0,0
12.12.2017 20:00:00 8,3 5,0 - - 28 15 - - ZW 1011,7 10 0 0,0

tt = temperatuur
td = dauwpunt
tt -20cm = temperatuur -20cm
tt -100cm = temperatuur -100cm
ff = windsnelheid
fx = windstoten
dd = windrichting
ppp = luchtdruk
vv = zicht
sd = Zonneschijnduur
rr = neerslag

Weerstations in de omgeving